Time,TemperatureF,DewpointF,PressureIn,WindDirection,WindDirectionDegrees,WindSpeedMPH,WindSpeedGustMPH,Humidity,HourlyPrecipIn,Conditions,Clouds,dailyrainin,SoftwareType,DateUTC
2013-07-16 00:01:00,74.7,70.9,30.15,NW,310,0.0,0.0,88,0.00,,CLR,0.00,VWS V14.01,2013-07-16 04:01:00,
2013-07-16 00:06:00,74.5,71.0,30.15,NW,310,0.0,0.0,89,0.00,,CLR,0.00,VWS V14.01,2013-07-16 04:06:00,
2013-07-16 00:11:00,74.5,71.0,30.15,NW,310,0.0,0.0,89,0.00,,CLR,0.00,VWS V14.01,2013-07-16 04:11:00,
2013-07-16 00:16:00,74.5,71.0,30.15,NW,310,0.0,0.0,89,0.00,,CLR,0.00,VWS V14.01,2013-07-16 04:16:00,
2013-07-16 00:21:00,74.5,71.0,30.15,NW,310,0.0,0.0,89,0.00,,CLR,0.00,VWS V14.01,2013-07-16 04:21:00,
2013-07-16 00:26:00,74.3,70.8,30.15,NW,310,0.0,0.0,89,0.00,,CLR,0.00,VWS V14.01,2013-07-16 04:26:00,
2013-07-16 00:31:00,74.3,70.8,30.15,NW,310,0.0,0.0,89,0.00,,CLR,0.00,VWS V14.01,2013-07-16 04:31:00,
2013-07-16 00:36:00,74.3,70.6,30.15,NW,310,0.0,0.0,88,0.00,,CLR,0.00,VWS V14.01,2013-07-16 04:36:00,
2013-07-16 00:41:00,74.1,70.4,30.15,NW,310,0.0,0.0,88,0.00,,CLR,0.00,VWS V14.01,2013-07-16 04:41:00,
2013-07-16 00:46:00,74.1,70.4,30.15,NW,310,0.0,0.0,88,0.00,,CLR,0.00,VWS V14.01,2013-07-16 04:46:00,
2013-07-16 00:51:00,73.9,70.2,30.15,NW,310,0.0,0.0,88,0.00,,CLR,0.00,VWS V14.01,2013-07-16 04:51:00,
2013-07-16 00:56:00,73.9,70.2,30.15,NW,310,0.0,0.0,88,0.00,,CLR,0.00,VWS V14.01,2013-07-16 04:56:00,
2013-07-16 01:01:00,73.8,70.1,30.15,NW,310,0.0,0.0,88,0.00,,CLR,0.00,VWS V14.01,2013-07-16 05:01:00,
2013-07-16 01:06:00,73.8,70.1,30.15,NW,310,0.0,0.0,88,0.00,,CLR,0.00,VWS V14.01,2013-07-16 05:06:00,
2013-07-16 01:11:00,73.8,70.1,30.15,NW,310,0.0,0.0,88,0.00,,CLR,0.00,VWS V14.01,2013-07-16 05:11:00,
2013-07-16 01:16:00,73.6,69.9,30.15,NW,310,0.0,0.0,88,0.00,,CLR,0.00,VWS V14.01,2013-07-16 05:16:00,
2013-07-16 01:21:00,73.6,69.9,30.15,NW,310,0.0,0.0,88,0.00,,,0.00,VWS V14.01,2013-07-16 05:21:00,
2013-07-16 01:26:00,73.6,69.9,30.15,NW,310,0.0,0.0,88,0.00,,,0.00,VWS V14.01,2013-07-16 05:26:00,
2013-07-16 01:31:00,73.4,69.7,30.15,NW,310,0.0,0.0,88,0.00,,,0.00,VWS V14.01,2013-07-16 05:31:00,
2013-07-16 01:36:00,73.4,69.7,30.15,NW,310,0.0,0.0,88,0.00,,,0.00,VWS V14.01,2013-07-16 05:36:00,
2013-07-16 01:41:00,73.4,69.9,30.15,NW,310,0.0,0.0,89,0.00,,,0.00,VWS V14.01,2013-07-16 05:41:00,
2013-07-16 01:46:00,73.4,69.9,30.15,NW,310,0.0,0.0,89,0.00,,CLR,0.00,VWS V14.01,2013-07-16 05:46:00,
2013-07-16 01:51:00,73.4,69.7,30.15,NW,310,0.0,0.0,88,0.00,,CLR,0.00,VWS V14.01,2013-07-16 05:51:00,
2013-07-16 01:56:00,73.2,69.8,30.12,NW,310,0.0,0.0,89,0.00,,CLR,0.00,VWS V14.01,2013-07-16 05:56:00,
2013-07-16 02:01:00,73.2,69.8,30.12,NW,310,0.0,0.0,89,0.00,,CLR,0.00,VWS V14.01,2013-07-16 06:01:00,
2013-07-16 02:06:00,73.2,69.5,30.12,NW,310,0.0,0.0,88,0.00,,CLR,0.00,VWS V14.01,2013-07-16 06:06:00,
2013-07-16 02:11:00,73.2,69.8,30.12,NW,310,0.0,0.0,89,0.00,,CLR,0.00,VWS V14.01,2013-07-16 06:11:00,
2013-07-16 02:16:00,73.2,69.8,30.12,NW,310,0.0,0.0,89,0.00,,CLR,0.00,VWS V14.01,2013-07-16 06:16:00,
2013-07-16 02:21:00,73.2,69.8,30.12,NW,310,0.0,0.0,89,0.00,,CLR,0.00,VWS V14.01,2013-07-16 06:21:00,
2013-07-16 02:26:00,73.0,69.3,30.12,NW,310,0.0,0.0,88,0.00,,CLR,0.00,VWS V14.01,2013-07-16 06:26:00,
2013-07-16 02:31:00,73.0,69.3,30.12,NW,310,0.0,0.0,88,0.00,,CLR,0.00,VWS V14.01,2013-07-16 06:31:00,
2013-07-16 02:36:00,73.0,69.3,30.12,NW,310,0.0,0.0,88,0.00,,CLR,0.00,VWS V14.01,2013-07-16 06:36:00,
2013-07-16 02:41:00,73.0,69.3,30.12,NW,310,0.0,0.0,88,0.00,,CLR,0.00,VWS V14.01,2013-07-16 06:41:00,
2013-07-16 02:46:00,73.0,69.3,30.12,NW,310,0.0,0.0,88,0.00,,CLR,0.00,VWS V14.01,2013-07-16 06:46:00,
2013-07-16 02:51:00,73.0,69.3,30.12,NW,310,0.0,0.0,88,0.00,,CLR,0.00,VWS V14.01,2013-07-16 06:51:00,
2013-07-16 02:56:00,73.0,69.3,30.12,NW,310,0.0,0.0,88,0.00,,CLR,0.00,VWS V14.01,2013-07-16 06:56:00,
2013-07-16 03:01:00,72.9,69.2,30.12,NW,310,0.0,0.0,88,0.00,,,0.00,VWS V14.01,2013-07-16 07:01:00,
2013-07-16 03:06:00,72.9,69.2,30.12,NW,310,0.0,0.0,88,0.00,,,0.00,VWS V14.01,2013-07-16 07:06:00,
2013-07-16 03:11:00,72.9,68.9,30.12,NW,310,0.0,0.0,88,0.00,,,0.00,VWS V14.01,2013-07-16 07:11:00,
2013-07-16 03:16:00,72.9,68.9,30.12,NW,310,0.0,0.0,88,0.00,,,0.00,VWS V14.01,2013-07-16 07:16:00,
2013-07-16 03:21:00,72.9,68.7,30.12,NW,310,0.0,0.0,87,0.00,,,0.00,VWS V14.01,2013-07-16 07:21:00,
2013-07-16 03:26:00,72.9,68.5,30.12,NW,310,0.0,0.0,86,0.00,,,0.00,VWS V14.01,2013-07-16 07:26:00,
2013-07-16 03:31:00,72.9,68.5,30.12,NW,310,0.0,0.0,86,0.00,,,0.00,VWS V14.01,2013-07-16 07:31:00,
2013-07-16 03:36:00,72.9,68.3,30.12,NW,310,0.0,0.0,86,0.00,,,0.00,VWS V14.01,2013-07-16 07:36:00,
2013-07-16 03:41:00,73.0,68.4,30.12,NW,310,0.0,0.0,86,0.00,,,0.00,VWS V14.01,2013-07-16 07:41:00,
2013-07-16 03:46:00,73.0,68.4,30.12,NW,310,0.0,0.0,86,0.00,,,0.00,VWS V14.01,2013-07-16 07:46:00,
2013-07-16 03:51:00,73.0,68.2,30.12,NW,310,0.0,0.0,85,0.00,,,0.00,VWS V14.01,2013-07-16 07:51:00,
2013-07-16 03:56:00,73.0,68.2,30.12,NW,310,0.0,0.0,85,0.00,,,0.00,VWS V14.01,2013-07-16 07:56:00,
2013-07-16 04:01:00,73.0,68.0,30.12,NW,310,0.0,0.0,84,0.00,,CLR,0.00,VWS V14.01,2013-07-16 08:01:00,
2013-07-16 04:06:00,73.0,68.0,30.12,NW,310,0.0,0.0,84,0.00,,CLR,0.00,VWS V14.01,2013-07-16 08:06:00,
2013-07-16 04:11:00,73.0,67.8,30.12,NW,309,0.0,0.0,83,0.00,,CLR,0.00,VWS V14.01,2013-07-16 08:11:00,
2013-07-16 04:16:00,73.2,67.9,30.12,NW,310,0.0,0.0,83,0.00,,CLR,0.00,VWS V14.01,2013-07-16 08:16:00,
2013-07-16 04:21:00,73.2,67.7,30.12,NW,310,0.0,0.0,83,0.00,,,0.00,VWS V14.01,2013-07-16 08:21:00,
2013-07-16 04:26:00,73.2,67.7,30.12,NW,310,0.0,0.0,83,0.00,,,0.00,VWS V14.01,2013-07-16 08:26:00,
2013-07-16 04:31:00,73.2,67.7,30.12,NW,310,0.0,0.0,83,0.00,,,0.00,VWS V14.01,2013-07-16 08:31:00,
2013-07-16 04:36:00,73.2,67.7,30.12,NW,310,0.0,0.0,83,0.00,,,0.00,VWS V14.01,2013-07-16 08:36:00,
2013-07-16 04:41:00,73.2,67.4,30.12,NW,310,0.0,0.0,82,0.00,,,0.00,VWS V14.01,2013-07-16 08:41:00,
2013-07-16 04:46:00,73.4,67.6,30.12,NW,310,0.0,0.0,82,0.00,,,0.00,VWS V14.01,2013-07-16 08:46:00,
2013-07-16 04:51:00,73.4,67.4,30.12,NW,310,0.0,0.0,81,0.00,,,0.00,VWS V14.01,2013-07-16 08:51:00,
2013-07-16 04:56:00,73.4,67.4,30.12,NW,310,0.0,0.0,81,0.00,,,0.00,VWS V14.01,2013-07-16 08:56:00,
2013-07-16 05:01:00,73.4,67.4,30.12,NW,310,0.0,0.0,81,0.00,,,0.00,VWS V14.01,2013-07-16 09:01:00,
2013-07-16 05:06:00,73.4,67.4,30.12,NW,310,0.0,0.0,81,0.00,,,0.00,VWS V14.01,2013-07-16 09:06:00,
2013-07-16 05:11:00,73.4,67.4,30.12,NW,310,0.0,0.0,81,0.00,,,0.00,VWS V14.01,2013-07-16 09:11:00,
2013-07-16 05:16:00,73.4,67.4,30.12,NW,310,0.0,0.0,81,0.00,,,0.00,VWS V14.01,2013-07-16 09:16:00,
2013-07-16 05:21:00,73.4,67.1,30.12,NW,310,0.0,0.0,81,0.00,,,0.00,VWS V14.01,2013-07-16 09:21:00,
2013-07-16 05:26:00,73.4,67.1,30.15,NW,310,0.0,0.0,81,0.00,,,0.00,VWS V14.01,2013-07-16 09:26:00,
2013-07-16 05:31:00,73.4,67.1,30.15,NW,310,0.0,0.0,81,0.00,,,0.00,VWS V14.01,2013-07-16 09:31:00,
2013-07-16 05:36:00,73.4,67.1,30.15,NW,310,0.0,0.0,81,0.00,,BKN001,0.00,VWS V14.01,2013-07-16 09:36:00,
2013-07-16 05:41:00,73.4,67.1,30.15,NW,310,0.0,0.0,81,0.00,,BKN001,0.00,VWS V14.01,2013-07-16 09:41:00,
2013-07-16 05:46:00,73.4,67.1,30.15,NW,310,0.0,0.0,81,0.00,,,0.00,VWS V14.01,2013-07-16 09:46:00,
2013-07-16 05:51:00,73.4,67.1,30.15,NW,310,0.0,0.0,81,0.00,,,0.00,VWS V14.01,2013-07-16 09:51:00,
2013-07-16 05:56:00,73.4,67.1,30.15,NW,310,0.0,0.0,81,0.00,,,0.00,VWS V14.01,2013-07-16 09:56:00,
2013-07-16 06:01:00,73.4,67.1,30.15,NW,310,0.0,0.0,81,0.00,,,0.00,VWS V14.01,2013-07-16 10:01:00,
2013-07-16 06:06:00,73.4,67.1,30.15,NW,310,0.0,0.0,81,0.00,,,0.00,VWS V14.01,2013-07-16 10:06:00,
2013-07-16 06:11:00,73.6,67.3,30.15,NW,310,0.0,0.0,81,0.00,,,0.00,VWS V14.01,2013-07-16 10:11:00,
2013-07-16 06:16:00,73.6,67.3,30.15,NW,310,0.0,0.0,81,0.00,,,0.00,VWS V14.01,2013-07-16 10:16:00,
2013-07-16 06:21:00,73.6,67.1,30.15,NW,310,0.0,0.0,80,0.00,,,0.00,VWS V14.01,2013-07-16 10:21:00,
2013-07-16 06:26:00,73.6,67.1,30.15,NW,310,0.0,0.0,80,0.00,,,0.00,VWS V14.01,2013-07-16 10:26:00,
2013-07-16 06:31:00,73.8,67.2,30.15,NW,310,0.0,0.0,80,0.00,,,0.00,VWS V14.01,2013-07-16 10:31:00,
2013-07-16 06:36:00,73.8,67.2,30.15,NW,310,0.0,0.0,80,0.00,,,0.00,VWS V14.01,2013-07-16 10:36:00,
2013-07-16 06:41:00,73.8,67.2,30.15,NW,310,0.0,0.0,80,0.00,,,0.00,VWS V14.01,2013-07-16 10:41:00,
2013-07-16 06:46:00,73.9,67.4,30.15,NW,310,0.0,0.0,80,0.00,,,0.00,VWS V14.01,2013-07-16 10:46:00,
2013-07-16 06:51:00,73.9,67.4,30.15,NW,310,0.0,0.0,80,0.00,,,0.00,VWS V14.01,2013-07-16 10:51:00,
2013-07-16 06:56:00,74.1,67.3,30.15,NW,310,0.0,0.0,79,0.00,,,0.00,VWS V14.01,2013-07-16 10:56:00,
2013-07-16 07:01:00,74.1,67.3,30.15,NW,310,0.0,0.0,79,0.00,,CLR,0.00,VWS V14.01,2013-07-16 11:01:00,
2013-07-16 07:06:00,74.3,67.3,30.15,NW,310,0.0,0.0,79,0.00,,CLR,0.00,VWS V14.01,2013-07-16 11:06:00,
2013-07-16 07:11:00,74.5,67.2,30.15,NW,310,0.0,0.0,78,0.00,,CLR,0.00,VWS V14.01,2013-07-16 11:11:00,
2013-07-16 07:16:00,74.5,67.2,30.15,NW,310,0.0,0.0,78,0.00,,CLR,0.00,VWS V14.01,2013-07-16 11:16:00,
2013-07-16 07:21:00,74.7,67.1,30.15,NW,310,0.0,0.0,77,0.00,,CLR,0.00,VWS V14.01,2013-07-16 11:21:00,
2013-07-16 07:26:00,74.8,67.3,30.15,NW,310,0.0,0.0,77,0.00,,CLR,0.00,VWS V14.01,2013-07-16 11:26:00,
2013-07-16 07:31:00,75.0,67.2,30.15,NW,310,0.0,0.0,77,0.00,,CLR,0.00,VWS V14.01,2013-07-16 11:31:00,
2013-07-16 07:36:00,75.2,66.9,30.15,NW,310,0.0,0.0,75,0.00,,CLR,0.00,VWS V14.01,2013-07-16 11:36:00,
2013-07-16 07:41:00,75.4,67.3,30.15,NW,310,0.0,0.0,76,0.00,,CLR,0.00,VWS V14.01,2013-07-16 11:41:00,
2013-07-16 07:46:00,75.6,67.2,30.15,NW,310,0.0,0.0,75,0.00,,CLR,0.00,VWS V14.01,2013-07-16 11:46:00,
2013-07-16 07:51:00,75.7,67.4,30.15,NW,310,0.0,0.0,75,0.00,,CLR,0.00,VWS V14.01,2013-07-16 11:51:00,
2013-07-16 07:56:00,75.7,67.1,30.15,NW,310,0.0,0.0,75,0.00,,CLR,0.00,VWS V14.01,2013-07-16 11:56:00,
2013-07-16 08:01:00,75.9,67.3,30.15,NW,310,0.0,0.0,75,0.00,,CLR,0.00,VWS V14.01,2013-07-16 12:01:00,
2013-07-16 08:06:00,76.1,67.5,30.15,NW,310,0.0,0.0,75,0.00,,CLR,0.00,VWS V14.01,2013-07-16 12:06:00,
2013-07-16 08:11:00,76.3,67.4,30.18,NW,310,0.0,0.0,74,0.00,,CLR,0.00,VWS V14.01,2013-07-16 12:11:00,
2013-07-16 08:16:00,76.5,67.6,30.18,NNW,339,0.0,0.0,74,0.00,,CLR,0.00,VWS V14.01,2013-07-16 12:16:00,
2013-07-16 08:21:00,76.6,67.5,30.18,NNW,339,0.0,0.0,73,0.00,,CLR,0.00,VWS V14.01,2013-07-16 12:21:00,
2013-07-16 08:26:00,76.6,67.2,30.18,NNW,339,0.0,0.0,73,0.00,,CLR,0.00,VWS V14.01,2013-07-16 12:26:00,
2013-07-16 08:31:00,76.8,67.4,30.18,NNW,339,0.0,0.0,73,0.00,,CLR,0.00,VWS V14.01,2013-07-16 12:31:00,
2013-07-16 08:36:00,77.2,67.5,30.18,NNW,339,0.0,0.0,72,0.00,,CLR,0.00,VWS V14.01,2013-07-16 12:36:00,
2013-07-16 08:41:00,77.2,67.5,30.18,NNW,339,0.0,0.0,72,0.00,,CLR,0.00,VWS V14.01,2013-07-16 12:41:00,
2013-07-16 08:46:00,77.4,67.9,30.18,NNW,339,0.0,0.0,73,0.00,,CLR,0.00,VWS V14.01,2013-07-16 12:46:00,
2013-07-16 08:51:00,77.5,67.5,30.18,NNW,339,0.0,0.0,71,0.00,,CLR,0.00,VWS V14.01,2013-07-16 12:51:00,
2013-07-16 08:56:00,77.9,67.9,30.18,NNW,339,0.0,0.0,71,0.00,,CLR,0.00,VWS V14.01,2013-07-16 12:56:00,
2013-07-16 09:01:00,78.1,68.1,30.18,NNW,339,0.0,0.0,71,0.00,,CLR,0.00,VWS V14.01,2013-07-16 13:01:00,
2013-07-16 09:06:00,78.3,68.2,30.18,NNW,339,0.0,0.0,71,0.00,,CLR,0.00,VWS V14.01,2013-07-16 13:06:00,
2013-07-16 09:11:00,78.4,68.7,30.18,NNW,339,0.0,0.0,72,0.00,,CLR,0.00,VWS V14.01,2013-07-16 13:11:00,
2013-07-16 09:16:00,78.8,68.7,30.18,NNW,339,0.0,0.0,71,0.00,,CLR,0.00,VWS V14.01,2013-07-16 13:16:00,
2013-07-16 09:21:00,79.0,68.6,30.18,NNW,339,0.0,0.0,71,0.00,,CLR,0.00,VWS V14.01,2013-07-16 13:21:00,
2013-07-16 09:26:00,79.2,68.8,30.18,NNW,339,0.0,0.0,71,0.00,,CLR,0.00,VWS V14.01,2013-07-16 13:26:00,
2013-07-16 09:31:00,79.3,69.0,30.18,NNW,339,0.0,0.0,71,0.00,,CLR,0.00,VWS V14.01,2013-07-16 13:31:00,
2013-07-16 09:36:00,79.5,68.9,30.18,NNW,339,0.0,0.0,70,0.00,,CLR,0.00,VWS V14.01,2013-07-16 13:36:00,
2013-07-16 09:41:00,79.9,69.2,30.18,NW,315,0.0,0.0,70,0.00,,CLR,0.00,VWS V14.01,2013-07-16 13:41:00,
2013-07-16 09:46:00,80.1,69.1,30.18,NW,315,0.0,0.0,69,0.00,,CLR,0.00,VWS V14.01,2013-07-16 13:46:00,
2013-07-16 09:51:00,80.2,69.3,30.18,NW,315,0.0,0.0,69,0.00,,CLR,0.00,VWS V14.01,2013-07-16 13:51:00,
2013-07-16 09:56:00,80.6,69.6,30.18,NW,315,0.0,0.0,69,0.00,,CLR,0.00,VWS V14.01,2013-07-16 13:56:00,
2013-07-16 10:01:00,80.8,69.8,30.18,NW,315,0.0,0.0,69,0.00,,CLR,0.00,VWS V14.01,2013-07-16 14:01:00,
2013-07-16 10:06:00,81.0,69.4,30.18,NW,315,0.0,0.0,68,0.00,,CLR,0.00,VWS V14.01,2013-07-16 14:06:00,
2013-07-16 10:11:00,81.1,70.1,30.15,NW,315,0.0,0.0,69,0.00,,CLR,0.00,VWS V14.01,2013-07-16 14:11:00,
2013-07-16 10:16:00,81.5,70.5,30.15,NW,315,0.0,0.0,69,0.00,,CLR,0.00,VWS V14.01,2013-07-16 14:16:00,
2013-07-16 10:21:00,81.7,70.1,30.15,NW,315,0.0,0.0,68,0.00,,CLR,0.00,VWS V14.01,2013-07-16 14:21:00,
2013-07-16 10:26:00,81.9,70.5,30.15,NW,315,0.0,0.0,69,0.00,,CLR,0.00,VWS V14.01,2013-07-16 14:26:00,
2013-07-16 10:31:00,82.0,70.4,30.15,NW,315,0.0,0.0,68,0.00,,CLR,0.00,VWS V14.01,2013-07-16 14:31:00,
2013-07-16 10:36:00,82.2,70.6,30.15,NW,315,0.0,0.0,68,0.00,,CLR,0.00,VWS V14.01,2013-07-16 14:36:00,
2013-07-16 10:41:00,82.4,70.2,30.15,NW,315,0.0,0.0,67,0.00,,CLR,0.00,VWS V14.01,2013-07-16 14:41:00,
2013-07-16 10:46:00,82.6,70.3,30.15,NW,315,0.0,0.0,67,0.00,,CLR,0.00,VWS V14.01,2013-07-16 14:46:00,
2013-07-16 10:51:00,82.9,70.7,30.15,NW,315,0.0,0.0,67,0.00,,CLR,0.00,VWS V14.01,2013-07-16 14:51:00,
2013-07-16 10:56:00,83.3,70.7,30.15,NW,315,0.0,0.0,66,0.00,,CLR,0.00,VWS V14.01,2013-07-16 14:56:00,
2013-07-16 11:01:00,83.7,70.8,30.15,NW,315,0.0,0.0,65,0.00,,CLR,0.00,VWS V14.01,2013-07-16 15:01:00,
2013-07-16 11:06:00,84.2,71.0,30.15,NW,315,0.0,0.0,65,0.00,,CLR,0.00,VWS V14.01,2013-07-16 15:06:00,
2013-07-16 11:11:00,84.7,71.5,30.15,NW,315,0.0,0.0,65,0.00,,CLR,0.00,VWS V14.01,2013-07-16 15:11:00,
2013-07-16 11:16:00,85.3,71.7,30.15,NW,315,0.0,0.0,64,0.00,,CLR,0.00,VWS V14.01,2013-07-16 15:16:00,
2013-07-16 11:21:00,85.8,71.9,30.15,NW,315,0.0,0.0,63,0.00,,CLR,0.00,VWS V14.01,2013-07-16 15:21:00,
2013-07-16 11:26:00,86.7,72.7,30.15,WNW,293,0.0,0.0,63,0.00,,CLR,0.00,VWS V14.01,2013-07-16 15:26:00,
2013-07-16 11:31:00,87.6,73.2,30.15,WNW,293,0.0,0.0,63,0.00,,CLR,0.00,VWS V14.01,2013-07-16 15:31:00,
2013-07-16 11:36:00,88.7,73.9,30.15,WNW,293,0.0,0.0,62,0.00,,CLR,0.00,VWS V14.01,2013-07-16 15:36:00,
2013-07-16 11:41:00,90.0,74.5,30.15,WNW,293,0.0,0.0,60,0.00,,CLR,0.00,VWS V14.01,2013-07-16 15:41:00,
2013-07-16 11:46:00,91.2,75.6,30.15,WNW,293,0.0,0.0,60,0.00,,CLR,0.00,VWS V14.01,2013-07-16 15:46:00,
2013-07-16 11:51:00,92.7,76.3,30.15,WNW,293,0.0,0.0,59,0.00,,CLR,0.00,VWS V14.01,2013-07-16 15:51:00,
2013-07-16 11:56:00,94.1,77.0,30.15,WNW,293,0.0,0.0,58,0.00,,CLR,0.00,VWS V14.01,2013-07-16 15:56:00,
2013-07-16 12:01:00,95.4,77.4,30.15,WNW,293,0.0,0.0,56,0.00,,FEW044,0.00,VWS V14.01,2013-07-16 16:01:00,
2013-07-16 12:06:00,96.8,78.0,30.15,WNW,293,0.0,0.0,55,0.00,,FEW044,0.00,VWS V14.01,2013-07-16 16:06:00,
2013-07-16 12:11:00,98.1,79.2,30.15,WNW,293,0.0,0.0,55,0.00,,FEW044,0.00,VWS V14.01,2013-07-16 16:11:00,
2013-07-16 12:16:00,99.3,79.6,30.15,WNW,293,0.0,0.0,54,0.00,,FEW044,0.00,VWS V14.01,2013-07-16 16:16:00,
2013-07-16 12:21:00,100.6,80.4,30.15,WNW,293,0.0,0.0,53,0.00,,FEW044,0.00,VWS V14.01,2013-07-16 16:21:00,
2013-07-16 12:26:00,101.7,81.4,30.15,WNW,293,0.0,0.0,53,0.00,,FEW044,0.00,VWS V14.01,2013-07-16 16:26:00,
2013-07-16 12:31:00,102.6,81.8,30.15,WNW,293,0.0,0.0,52,0.00,,FEW044,0.00,VWS V14.01,2013-07-16 16:31:00,
2013-07-16 12:36:00,103.5,82.6,30.15,WNW,293,0.0,0.0,52,0.00,,FEW044,0.00,VWS V14.01,2013-07-16 16:36:00,
2013-07-16 12:41:00,104.2,82.9,30.15,WNW,284,0.0,0.0,52,0.00,,FEW044,0.00,VWS V14.01,2013-07-16 16:41:00,
2013-07-16 12:46:00,104.7,83.4,30.15,WNW,284,0.0,0.0,52,0.00,,FEW044,0.00,VWS V14.01,2013-07-16 16:46:00,
2013-07-16 12:51:00,105.3,83.9,30.15,WNW,284,0.0,0.0,52,0.00,,FEW044,0.00,VWS V14.01,2013-07-16 16:51:00,
2013-07-16 12:56:00,105.8,83.1,30.15,WNW,284,0.0,0.0,50,0.00,,FEW044,0.00,VWS V14.01,2013-07-16 16:56:00,
2013-07-16 13:01:00,106.2,83.4,30.15,WNW,284,0.0,0.0,50,0.00,,CLR,0.00,VWS V14.01,2013-07-16 17:01:00,
2013-07-16 13:06:00,106.5,83.8,30.15,WNW,284,0.0,0.0,50,0.00,,CLR,0.00,VWS V14.01,2013-07-16 17:06:00,
2013-07-16 13:11:00,106.7,83.9,30.15,WNW,284,0.0,0.0,50,0.00,,CLR,0.00,VWS V14.01,2013-07-16 17:11:00,
2013-07-16 13:16:00,106.7,83.1,30.15,WNW,284,0.0,0.0,48,0.00,,CLR,0.00,VWS V14.01,2013-07-16 17:16:00,
2013-07-16 13:21:00,106.3,82.8,30.15,WNW,284,0.0,0.0,48,0.00,,CLR,0.00,VWS V14.01,2013-07-16 17:21:00,
2013-07-16 13:26:00,105.4,81.9,30.15,NNW,337,0.0,0.0,48,0.00,,CLR,0.00,VWS V14.01,2013-07-16 17:26:00,
2013-07-16 13:31:00,104.0,80.6,30.15,NNW,337,0.0,0.0,48,0.00,,CLR,0.00,VWS V14.01,2013-07-16 17:31:00,
2013-07-16 13:36:00,102.6,79.3,30.15,West,276,0.0,0.0,48,0.00,,CLR,0.00,VWS V14.01,2013-07-16 17:36:00,
2013-07-16 13:41:00,101.1,78.4,30.12,West,280,0.0,0.0,49,0.00,,CLR,0.00,VWS V14.01,2013-07-16 17:41:00,
2013-07-16 13:46:00,99.9,77.3,30.12,West,280,0.0,0.0,49,0.00,,CLR,0.00,VWS V14.01,2013-07-16 17:46:00,
2013-07-16 13:51:00,99.0,76.5,30.12,WNW,284,0.0,0.0,49,0.00,,CLR,0.00,VWS V14.01,2013-07-16 17:51:00,
2013-07-16 13:56:00,98.2,77.0,30.12,WNW,284,0.0,0.0,51,0.00,,CLR,0.00,VWS V14.01,2013-07-16 17:56:00,
2013-07-16 14:01:00,97.9,76.7,30.12,WNW,284,0.0,0.0,51,0.00,,SCT055,0.00,VWS V14.01,2013-07-16 18:01:00,
2013-07-16 14:06:00,97.9,76.7,30.12,WNW,284,0.0,0.0,51,0.00,,SCT055,0.00,VWS V14.01,2013-07-16 18:06:00,
2013-07-16 14:11:00,97.5,76.4,30.12,NE,36,0.0,0.0,51,0.00,,SCT055,0.00,VWS V14.01,2013-07-16 18:11:00,
2013-07-16 14:16:00,97.0,77.1,30.12,ENE,59,0.0,0.0,53,0.00,,SCT055,0.00,VWS V14.01,2013-07-16 18:16:00,
2013-07-16 14:21:00,96.1,76.2,30.12,ENE,59,0.0,0.0,53,0.00,,SCT055,0.00,VWS V14.01,2013-07-16 18:21:00,
2013-07-16 14:26:00,95.4,75.6,30.12,ENE,59,0.0,0.0,53,0.00,,SCT055,0.00,VWS V14.01,2013-07-16 18:26:00,
2013-07-16 14:31:00,94.6,75.3,30.12,ENE,59,0.0,0.0,54,0.00,,SCT055,0.00,VWS V14.01,2013-07-16 18:31:00,
2013-07-16 14:36:00,93.7,74.4,30.12,ENE,59,0.0,0.0,54,0.00,,SCT055,0.00,VWS V14.01,2013-07-16 18:36:00,
2013-07-16 14:41:00,93.0,74.2,30.12,ENE,59,0.0,0.0,54,0.00,,SCT055,0.00,VWS V14.01,2013-07-16 18:41:00,
2013-07-16 14:46:00,92.3,73.5,30.12,ENE,59,0.0,0.0,54,0.00,,SCT055,0.00,VWS V14.01,2013-07-16 18:46:00,
2013-07-16 14:51:00,91.9,73.2,30.12,ENE,59,0.0,0.0,54,0.00,,SCT055,0.00,VWS V14.01,2013-07-16 18:51:00,
2013-07-16 14:56:00,91.4,72.7,30.12,ENE,59,0.0,0.0,54,0.00,,SCT055,0.00,VWS V14.01,2013-07-16 18:56:00,
2013-07-16 15:01:00,91.0,72.7,30.12,ENE,59,0.0,0.0,55,0.00,,BKN080,0.00,VWS V14.01,2013-07-16 19:01:00,
2013-07-16 15:06:00,90.5,72.5,30.12,ENE,60,0.0,0.0,56,0.00,,BKN080,0.00,VWS V14.01,2013-07-16 19:06:00,
2013-07-16 15:11:00,90.1,72.2,30.12,ENE,58,0.0,0.0,56,0.00,,BKN080,0.00,VWS V14.01,2013-07-16 19:11:00,
2013-07-16 15:16:00,89.8,71.9,30.12,ENE,58,0.0,0.0,56,0.00,,BKN080,0.00,VWS V14.01,2013-07-16 19:16:00,
2013-07-16 15:21:00,89.4,71.5,30.12,ENE,58,0.0,0.0,56,0.00,,BKN080,0.00,VWS V14.01,2013-07-16 19:21:00,
2013-07-16 15:26:00,89.2,71.7,30.12,ENE,58,0.0,0.0,56,0.00,,BKN080,0.00,VWS V14.01,2013-07-16 19:26:00,
2013-07-16 15:31:00,88.9,71.4,30.12,ENE,58,0.0,0.0,56,0.00,,BKN080,0.00,VWS V14.01,2013-07-16 19:31:00,
2013-07-16 15:36:00,88.7,71.6,30.12,NNE,18,0.0,0.0,57,0.00,,BKN080,0.00,VWS V14.01,2013-07-16 19:36:00,
2013-07-16 15:41:00,88.3,71.2,30.12,NNE,18,0.0,0.0,57,0.00,,BKN080,0.00,VWS V14.01,2013-07-16 19:41:00,
2013-07-16 15:46:00,88.2,70.7,30.12,NNE,18,0.0,0.0,56,0.00,,BKN080,0.00,VWS V14.01,2013-07-16 19:46:00,
2013-07-16 15:51:00,87.8,70.4,30.12,NNE,18,0.0,0.0,56,0.00,,BKN080,0.00,VWS V14.01,2013-07-16 19:51:00,
2013-07-16 15:56:00,87.6,70.6,30.12,NNE,18,0.0,0.0,57,0.00,,BKN080,0.00,VWS V14.01,2013-07-16 19:56:00,
2013-07-16 16:01:00,87.4,70.4,30.12,NNE,18,0.0,0.0,57,0.00,,BKN080,0.00,VWS V14.01,2013-07-16 20:01:00,
2013-07-16 16:06:00,87.3,70.2,30.12,NNE,18,0.0,0.0,57,0.00,,FEW046,0.00,VWS V14.01,2013-07-16 20:06:00,
2013-07-16 16:11:00,87.1,70.8,30.12,NNE,18,0.0,0.0,58,0.00,,FEW046,0.00,VWS V14.01,2013-07-16 20:11:00,
2013-07-16 16:16:00,86.9,71.6,30.12,NNE,18,0.0,0.0,60,0.00,,FEW046,0.00,VWS V14.01,2013-07-16 20:16:00,
2013-07-16 16:21:00,86.7,69.7,30.12,NNE,18,0.0,0.0,57,0.00,,FEW046,0.00,VWS V14.01,2013-07-16 20:21:00,
2013-07-16 16:26:00,86.5,71.2,30.12,NNE,18,0.0,0.0,60,0.00,,FEW046,0.00,VWS V14.01,2013-07-16 20:26:00,
2013-07-16 16:31:00,86.4,71.4,30.12,NNE,18,0.0,0.0,61,0.00,,FEW046,0.00,VWS V14.01,2013-07-16 20:31:00,
2013-07-16 16:36:00,86.2,71.2,30.12,NNE,18,0.0,0.0,61,0.00,,FEW046,0.00,VWS V14.01,2013-07-16 20:36:00,
2013-07-16 16:41:00,86.0,71.1,30.12,NNE,18,0.0,0.0,61,0.00,,FEW046,0.00,VWS V14.01,2013-07-16 20:41:00,
2013-07-16 16:46:00,85.8,71.2,30.12,NNE,18,0.0,0.0,62,0.00,,FEW046,0.00,VWS V14.01,2013-07-16 20:46:00,
2013-07-16 16:51:00,85.6,71.1,30.12,NNE,18,0.0,0.0,62,0.00,,FEW046,0.00,VWS V14.01,2013-07-16 20:51:00,
2013-07-16 16:56:00,85.5,70.9,30.12,NNE,18,0.0,0.0,62,0.00,,FEW046,0.00,VWS V14.01,2013-07-16 20:56:00,
2013-07-16 17:01:00,85.3,71.0,30.12,NNE,18,0.0,0.0,63,0.00,,FEW080,0.00,VWS V14.01,2013-07-16 21:01:00,
2013-07-16 17:06:00,85.1,71.2,30.12,NNE,18,0.0,0.0,63,0.00,,FEW080,0.00,VWS V14.01,2013-07-16 21:06:00,
2013-07-16 17:11:00,84.7,70.8,30.12,NNE,18,0.0,0.0,63,0.00,,FEW080,0.00,VWS V14.01,2013-07-16 21:11:00,
2013-07-16 17:16:00,84.6,71.0,30.12,NNE,18,0.0,0.0,64,0.00,,FEW080,0.00,VWS V14.01,2013-07-16 21:16:00,
2013-07-16 17:21:00,84.4,70.8,30.12,NNE,18,0.0,0.0,64,0.00,,FEW080,0.00,VWS V14.01,2013-07-16 21:21:00,
2013-07-16 17:26:00,84.2,71.0,30.12,NNE,18,0.0,0.0,65,0.00,,FEW080,0.00,VWS V14.01,2013-07-16 21:26:00,
2013-07-16 17:31:00,84.0,70.8,30.12,NNE,18,0.0,0.0,65,0.00,,FEW080,0.00,VWS V14.01,2013-07-16 21:31:00,
2013-07-16 17:36:00,83.8,70.6,30.12,NNE,18,0.0,0.0,65,0.00,,FEW080,0.00,VWS V14.01,2013-07-16 21:36:00,
2013-07-16 17:41:00,83.7,70.8,30.12,NNE,18,0.0,0.0,65,0.00,,FEW080,0.00,VWS V14.01,2013-07-16 21:41:00,
2013-07-16 17:46:00,83.5,70.6,30.12,NNE,18,0.0,0.0,65,0.00,,FEW080,0.00,VWS V14.01,2013-07-16 21:46:00,
2013-07-16 17:51:00,83.5,70.6,30.12,NNE,18,0.0,0.0,65,0.00,,FEW080,0.00,VWS V14.01,2013-07-16 21:51:00,
2013-07-16 17:56:00,83.3,70.4,30.12,NNE,18,0.0,0.0,65,0.00,,FEW080,0.00,VWS V14.01,2013-07-16 21:56:00,
2013-07-16 18:01:00,83.1,70.2,30.12,NNE,18,0.0,0.0,65,0.00,,CLR,0.00,VWS V14.01,2013-07-16 22:01:00,
2013-07-16 18:06:00,82.9,70.4,30.12,NNE,18,0.0,0.0,66,0.00,,CLR,0.00,VWS V14.01,2013-07-16 22:06:00,
2013-07-16 18:11:00,82.8,70.2,30.12,NNE,18,0.0,0.0,66,0.00,,CLR,0.00,VWS V14.01,2013-07-16 22:11:00,
2013-07-16 18:16:00,82.8,70.5,30.12,NNE,18,0.0,0.0,67,0.00,,CLR,0.00,VWS V14.01,2013-07-16 22:16:00,
2013-07-16 18:21:00,82.6,70.3,30.12,NNE,18,0.0,0.0,67,0.00,,CLR,0.00,VWS V14.01,2013-07-16 22:21:00,
2013-07-16 18:26:00,82.4,70.5,30.12,NNE,18,0.0,0.0,67,0.00,,CLR,0.00,VWS V14.01,2013-07-16 22:26:00,
2013-07-16 18:31:00,82.2,70.9,30.12,NNE,18,0.0,0.0,69,0.00,,CLR,0.00,VWS V14.01,2013-07-16 22:31:00,
2013-07-16 18:36:00,82.2,70.9,30.12,NNE,18,0.0,0.0,69,0.00,,CLR,0.00,VWS V14.01,2013-07-16 22:36:00,
2013-07-16 18:41:00,82.0,71.0,30.12,NNE,18,0.0,0.0,69,0.00,,CLR,0.00,VWS V14.01,2013-07-16 22:41:00,
2013-07-16 18:46:00,81.9,70.8,30.12,NNE,18,0.0,0.0,69,0.00,,CLR,0.00,VWS V14.01,2013-07-16 22:46:00,
2013-07-16 18:51:00,81.7,70.9,30.12,NNE,18,0.0,0.0,70,0.00,,CLR,0.00,VWS V14.01,2013-07-16 22:51:00,
2013-07-16 18:56:00,81.7,70.9,30.12,NNE,18,0.0,0.0,70,0.00,,CLR,0.00,VWS V14.01,2013-07-16 22:56:00,
2013-07-16 19:01:00,81.5,70.8,30.12,NNE,18,0.0,0.0,70,0.00,,CLR,0.00,VWS V14.01,2013-07-16 23:01:00,
2013-07-16 19:06:00,81.3,70.6,30.12,NNE,18,0.0,0.0,70,0.00,,CLR,0.00,VWS V14.01,2013-07-16 23:06:00,
2013-07-16 19:11:00,81.1,70.7,30.12,NNE,18,0.0,0.0,71,0.00,,CLR,0.00,VWS V14.01,2013-07-16 23:11:00,
2013-07-16 19:16:00,81.1,71.0,30.12,NNE,18,0.0,0.0,71,0.00,,CLR,0.00,VWS V14.01,2013-07-16 23:16:00,
2013-07-16 19:21:00,81.0,70.8,30.12,NNE,18,0.0,0.0,71,0.00,,CLR,0.00,VWS V14.01,2013-07-16 23:21:00,
2013-07-16 19:26:00,80.8,70.9,30.12,NNE,18,0.0,0.0,72,0.00,,CLR,0.00,VWS V14.01,2013-07-16 23:26:00,
2013-07-16 19:31:00,80.8,71.2,30.12,NNE,18,0.0,0.0,73,0.00,,CLR,0.00,VWS V14.01,2013-07-16 23:31:00,
2013-07-16 19:36:00,80.6,71.0,30.12,NNE,18,0.0,0.0,73,0.00,,CLR,0.00,VWS V14.01,2013-07-16 23:36:00,
2013-07-16 19:41:00,80.4,71.4,30.12,NNE,18,0.0,0.0,74,0.00,,CLR,0.00,VWS V14.01,2013-07-16 23:41:00,
2013-07-16 19:46:00,80.2,71.2,30.12,NNE,18,0.0,0.0,74,0.00,,CLR,0.00,VWS V14.01,2013-07-16 23:46:00,
2013-07-16 19:51:00,80.1,71.0,30.12,NNE,18,0.0,0.0,74,0.00,,CLR,0.00,VWS V14.01,2013-07-16 23:51:00,
2013-07-16 19:56:00,80.1,70.8,30.12,NNE,18,0.0,0.0,73,0.00,,CLR,0.00,VWS V14.01,2013-07-16 23:56:00,
2013-07-16 20:01:00,79.9,70.3,30.12,NNE,18,0.0,0.0,73,0.00,,CLR,0.00,VWS V14.01,2013-07-17 00:01:00,
2013-07-16 20:06:00,79.7,70.4,30.12,NNE,18,0.0,0.0,73,0.00,,CLR,0.00,VWS V14.01,2013-07-17 00:06:00,
2013-07-16 20:11:00,79.5,70.5,30.12,NNE,18,0.0,0.0,74,0.00,,CLR,0.00,VWS V14.01,2013-07-17 00:11:00,
2013-07-16 20:16:00,79.3,70.9,30.12,NNE,18,0.0,0.0,75,0.00,,CLR,0.00,VWS V14.01,2013-07-17 00:16:00,
2013-07-16 20:21:00,79.3,71.1,30.12,NNE,18,0.0,0.0,76,0.00,,CLR,0.00,VWS V14.01,2013-07-17 00:21:00,
2013-07-16 20:26:00,79.2,71.0,30.12,NNE,18,0.0,0.0,76,0.00,,CLR,0.00,VWS V14.01,2013-07-17 00:26:00,
2013-07-16 20:31:00,79.0,71.1,30.12,NNE,18,0.0,0.0,77,0.00,,CLR,0.00,VWS V14.01,2013-07-17 00:31:00,
2013-07-16 20:36:00,78.8,71.4,30.12,NNE,18,0.0,0.0,78,0.00,,CLR,0.00,VWS V14.01,2013-07-17 00:36:00,
2013-07-16 20:41:00,78.6,71.7,30.12,NNE,18,0.0,0.0,79,0.00,,CLR,0.00,VWS V14.01,2013-07-17 00:41:00,
2013-07-16 20:46:00,78.6,72.0,30.12,NNE,18,0.0,0.0,80,0.00,,CLR,0.00,VWS V14.01,2013-07-17 00:46:00,
2013-07-16 20:51:00,78.4,72.3,30.12,NNE,18,0.0,0.0,81,0.00,,CLR,0.00,VWS V14.01,2013-07-17 00:51:00,
2013-07-16 20:56:00,78.3,72.4,30.15,NNE,18,0.0,0.0,82,0.00,,CLR,0.00,VWS V14.01,2013-07-17 00:56:00,
2013-07-16 21:01:00,78.1,72.2,30.15,NNE,18,0.0,0.0,82,0.00,,CLR,0.00,VWS V14.01,2013-07-17 01:01:00,
2013-07-16 21:06:00,77.9,72.3,30.15,NNE,18,0.0,0.0,83,0.00,,CLR,0.00,VWS V14.01,2013-07-17 01:06:00,
2013-07-16 21:11:00,77.9,72.5,30.15,NNE,18,0.0,0.0,83,0.00,,CLR,0.00,VWS V14.01,2013-07-17 01:11:00,
2013-07-16 21:16:00,77.7,72.6,30.15,NNE,18,0.0,0.0,84,0.00,,CLR,0.00,VWS V14.01,2013-07-17 01:16:00,
2013-07-16 21:21:00,77.5,72.4,30.15,NNE,18,0.0,0.0,84,0.00,,CLR,0.00,VWS V14.01,2013-07-17 01:21:00,
2013-07-16 21:26:00,77.5,72.6,30.15,NNE,18,0.0,0.0,85,0.00,,CLR,0.00,VWS V14.01,2013-07-17 01:26:00,
2013-07-16 21:31:00,77.4,72.7,30.15,NNE,18,0.0,0.0,86,0.00,,CLR,0.00,VWS V14.01,2013-07-17 01:31:00,
2013-07-16 21:36:00,77.2,72.5,30.15,NNE,18,0.0,0.0,86,0.00,,CLR,0.00,VWS V14.01,2013-07-17 01:36:00,
2013-07-16 21:41:00,77.2,72.7,30.15,NNE,18,0.0,0.0,86,0.00,,CLR,0.00,VWS V14.01,2013-07-17 01:41:00,
2013-07-16 21:46:00,77.0,72.6,30.15,NNE,18,0.0,0.0,86,0.00,,CLR,0.00,VWS V14.01,2013-07-17 01:46:00,
2013-07-16 21:51:00,77.0,72.8,30.15,NNE,18,0.0,0.0,87,0.00,,CLR,0.00,VWS V14.01,2013-07-17 01:51:00,
2013-07-16 21:56:00,77.0,73.0,30.15,NNE,18,0.0,0.0,88,0.00,,CLR,0.00,VWS V14.01,2013-07-17 01:56:00,
2013-07-16 22:01:00,76.8,72.8,30.15,NNE,18,0.0,0.0,88,0.00,,CLR,0.00,VWS V14.01,2013-07-17 02:01:00,
2013-07-16 22:06:00,76.8,73.1,30.15,NNE,18,0.0,0.0,88,0.00,,CLR,0.00,VWS V14.01,2013-07-17 02:06:00,
2013-07-16 22:11:00,76.6,72.9,30.15,NNE,18,0.0,0.0,88,0.00,,CLR,0.00,VWS V14.01,2013-07-17 02:11:00,
2013-07-16 22:16:00,76.6,72.9,30.15,NNE,18,0.0,0.0,88,0.00,,CLR,0.00,VWS V14.01,2013-07-17 02:16:00,
2013-07-16 22:21:00,76.6,73.1,30.15,NNE,18,0.0,0.0,89,0.00,,CLR,0.00,VWS V14.01,2013-07-17 02:21:00,
2013-07-16 22:26:00,76.5,72.9,30.15,NNE,18,0.0,0.0,89,0.00,,CLR,0.00,VWS V14.01,2013-07-17 02:26:00,
2013-07-16 22:31:00,76.5,72.9,30.15,NNE,18,0.0,0.0,89,0.00,,CLR,0.00,VWS V14.01,2013-07-17 02:31:00,
2013-07-16 22:36:00,76.5,72.9,30.15,NNE,18,0.0,0.0,89,0.00,,CLR,0.00,VWS V14.01,2013-07-17 02:36:00,
2013-07-16 22:41:00,76.3,72.8,30.15,NNE,18,0.0,0.0,89,0.00,,CLR,0.00,VWS V14.01,2013-07-17 02:41:00,
2013-07-16 22:46:00,76.3,72.8,30.15,NNE,18,0.0,0.0,89,0.00,,CLR,0.00,VWS V14.01,2013-07-17 02:46:00,
2013-07-16 22:51:00,76.1,72.6,30.15,NNE,18,0.0,0.0,89,0.00,,CLR,0.00,VWS V14.01,2013-07-17 02:51:00,
2013-07-16 22:56:00,76.1,72.8,30.15,NNE,18,0.0,0.0,90,0.00,,CLR,0.00,VWS V14.01,2013-07-17 02:56:00,
2013-07-16 23:01:00,76.1,72.8,30.15,NNE,18,0.0,0.0,90,0.00,,CLR,0.00,VWS V14.01,2013-07-17 03:01:00,
2013-07-16 23:06:00,75.9,72.6,30.15,NNE,18,0.0,0.0,90,0.00,,CLR,0.00,VWS V14.01,2013-07-17 03:06:00,
2013-07-16 23:11:00,75.9,72.6,30.15,NNE,18,0.0,0.0,90,0.00,,CLR,0.00,VWS V14.01,2013-07-17 03:11:00,
2013-07-16 23:16:00,75.9,72.6,30.15,NNE,18,0.0,0.0,90,0.00,,CLR,0.00,VWS V14.01,2013-07-17 03:16:00,
2013-07-16 23:21:00,75.7,72.5,30.15,NNE,18,0.0,0.0,90,0.00,,CLR,0.00,VWS V14.01,2013-07-17 03:21:00,
2013-07-16 23:26:00,75.7,72.5,30.15,NNE,18,0.0,0.0,90,0.00,,CLR,0.00,VWS V14.01,2013-07-17 03:26:00,
2013-07-16 23:31:00,75.7,72.5,30.15,NNE,18,0.0,0.0,90,0.00,,CLR,0.00,VWS V14.01,2013-07-17 03:31:00,
2013-07-16 23:36:00,75.6,72.3,30.15,NNE,18,0.0,0.0,90,0.00,,CLR,0.00,VWS V14.01,2013-07-17 03:36:00,
2013-07-16 23:41:00,75.6,72.3,30.15,NNE,18,0.0,0.0,90,0.00,,CLR,0.00,VWS V14.01,2013-07-17 03:41:00,
2013-07-16 23:46:00,75.6,72.3,30.15,NNE,18,0.0,0.0,90,0.00,,CLR,0.00,VWS V14.01,2013-07-17 03:46:00,
2013-07-16 23:51:00,75.4,71.9,30.15,NNE,18,0.0,0.0,89,0.00,,CLR,0.00,VWS V14.01,2013-07-17 03:51:00,
2013-07-16 23:56:00,75.4,71.9,30.15,NNE,18,0.0,0.0,89,0.00,,CLR,0.00,VWS V14.01,2013-07-17 03:56:00,